Flag for Canada Weather past 2 weeks in Pickering, Ontario, Canada

55 °F

Partly sunny.

Feels Like: 53 °F
Forecast: N/A
Wind: 10 mph from Southeast

Location: Toronto Buttonville

Current Time: Oct 8, 2015 at 4:59:39 PM

Latest Report: Oct 8, 2015 at 4:00 PM

Visibility: 15 mi

Pressure: 30.09 "Hg

Humidity: 59%

Dew point: 41 °F

Location of PickeringLocation

Historic Weather in Pickering — Graph


Pickering temperature yesterday

Maximum temperature yesterday: 68 °F (at 3:00 PM)
Minimum temperature yesterday: 52 °F (at 1:00 AM)
Average temperature yesterday: 58 °F

Past Weeks' High & Low Weather Summary

High77 °F (Sep 23, 3:00 PM)100% (Sep 24, 7:00 AM)30.49 "Hg (Sep 24, 7:00 AM)
Low39 °F (Oct 1, 6:00 AM)34% (Oct 1, 5:00 PM)29.93 "Hg (Sep 29, 6:00 AM)
Average57 °F72%30.24 "Hg
* Reported Sep 23 3:00 PM — Oct 8 3:00 PM, Pickering, Weather by CustomWeather, © 2015

Note: Actual official high and low records may vary slightly from our data, if they occured in-between our weather recording intervals... More about our weather records


Pickering weather history for previous 24 hours

Time TempWeatherWind HumidityBarometerVisibility
3:00 PM
Thu, Oct 8
57 °FPartly sunny.9 mph55%30.11 "Hg15 mi
2:00 PM57 °FPartly sunny.10 mph63%30.14 "Hg15 mi
1:00 PM57 °FScattered clouds.13 mph63%30.16 "Hg15 mi
12:00 PM55 °FPassing clouds.12 mph63%30.19 "Hg15 mi
11:00 AM54 °FScattered clouds.13 mph67%30.19 "Hg15 mi
10:00 AM50 °FPassing clouds.9 mph67%30.19 "Hg15 mi
9:00 AM48 °FPartly sunny.6 mph66%30.20 "Hg15 mi
8:00 AM41 °FPassing clouds.3 mph81%30.20 "Hg15 mi
7:00 AM43 °FPassing clouds.3 mph76%30.19 "Hg15 mi
6:00 AM43 °FPassing clouds.3 mph81%30.19 "Hg15 mi
5:00 AM43 °FPassing clouds.3 mph87%30.16 "Hg15 mi
4:00 AM43 °FPassing clouds.3 mph87%30.16 "Hg15 mi
3:00 AM45 °FClear.2 mph87%30.16 "Hg15 mi
2:00 AM45 °FClear.5 mph93%30.16 "Hg15 mi
1:00 AM46 °FClear.5 mph93%30.15 "Hg15 mi
12:00 AM48 °FClear.5 mph87%30.14 "Hg15 mi
11:00 PM
Wed, Oct 7
52 °FClear.6 mph82%30.14 "Hg15 mi
10:00 PM54 °FPassing clouds.9 mph77%30.13 "Hg15 mi
9:00 PM54 °FPassing clouds.8 mph82%30.11 "Hg15 mi
8:00 PM55 °FPassing clouds.7 mph72%30.09 "Hg15 mi
7:00 PM59 °FPassing clouds.10 mph68%30.08 "Hg15 mi
6:00 PM63 °FPassing clouds.12 mph64%30.05 "Hg15 mi
5:00 PM66 °FScattered clouds.14 mph60%30.03 "Hg15 mi
4:00 PM64 °FBroken clouds.9 mph64%30.03 "Hg15 mi
Weather by CustomWeather, © 2015

See weather overviewHow to use our weather pages